Location: Iesi
(43.5167°N, 13.2333°E)
Time: 02:54:29
(UTC+00:00)

Cosmos 2218 Rocket - Pass Details

Date: 08 August 2020
Orbit: 957 x 1005 km, 82.9° (Epoch: 27 September)

Event Time Altitude Azimuth Distance (km) Brightness Sun altitude
Rises 18:44:08 0° 183° (S) 3,646 6.8 -4.8°
Reaches altitude 10° 18:46:38 10° 182° (S) 2,698 6.1 -5.2°
Maximum altitude 18:52:48 83° 96° (E) 974 4.0 -6.2°
Drops below altitude 10° 18:58:58 10° 10° (N) 2,698 6.6 -7.1°
Sets 19:01:28 0° 9° (N) 3,647 7.3 -7.5°
